This is the latest recevied weather packets stored in our database for station/object WZ9ZZZ-1. If no packets are shown the sender has not sent any weather packets the latest 1 day(s).
| Time | Temp. | Humidity | Pressure | Rain* | Wind** | Luminosity | Snow |
|---|---|---|---|---|---|---|---|
| 1778020992 | 26.67° C | 82% | 1011.2 hPa | 0 mm | 2.24 m/s, 208° | 104 W/m² | - |
| 1778020688 | 26.67° C | 81% | 1011.4 hPa | 0 mm | 3.13 m/s, 226° | 99 W/m² | - |
| 1778020386 | 26.67° C | 82% | 1011.4 hPa | 0 mm | 0.89 m/s, 244° | 114 W/m² | - |
| 1778020081 | 26.67° C | 82% | 1011.4 hPa | 0 mm | 2.24 m/s, 271° | 141 W/m² | - |
| 1778019777 | 26.67° C | 83% | 1011.4 hPa | 0 mm | 2.24 m/s, 202° | 136 W/m² | - |
| 1778019475 | 26.67° C | 83% | 1011.4 hPa | 0 mm | 2.24 m/s, 215° | 157 W/m² | - |
| 1778019171 | 26.67° C | 83% | 1011.6 hPa | 0 mm | 1.79 m/s, 161° | 148 W/m² | - |
| 1778018868 | 26.67° C | 83% | 1011.4 hPa | 0 mm | 2.24 m/s, 251° | 157 W/m² | - |
| 1778018565 | 26.67° C | 83% | 1011.6 hPa | 0 mm | 2.24 m/s, 228° | 142 W/m² | - |
| 1778018264 | 26.67° C | 83% | 1011.7 hPa | 0 mm | 1.79 m/s, 216° | 114 W/m² | - |
| 1778017961 | 26.67° C | 83% | 1011.7 hPa | 0 mm | 2.24 m/s, 232° | 103 W/m² | - |
| 1778017659 | 26.67° C | 83% | 1011.8 hPa | 0 mm | 3.13 m/s, 209° | 134 W/m² | - |
| 1778017356 | 26.67° C | 83% | 1011.7 hPa | 0 mm | 2.24 m/s, 267° | 73 W/m² | - |
| 1778017053 | 26.67° C | 83% | 1011.7 hPa | 0 mm | 1.79 m/s, 229° | 145 W/m² | - |
| 1778016750 | 26.67° C | 82% | 1011.8 hPa | 0 mm | 4.02 m/s, 260° | 182 W/m² | - |
| 1778016446 | 27.22° C | 82% | 1011.8 hPa | 0 mm | 2.24 m/s, 138° | 225 W/m² | - |
| 1778016144 | 27.22° C | 82% | 1012 hPa | 0 mm | 2.24 m/s, 242° | 181 W/m² | - |
| 1778015840 | 27.22° C | 83% | 1012 hPa | 0 mm | 0.45 m/s, 192° | 259 W/m² | - |
| 1778015538 | 27.22° C | 82% | 1012 hPa | 0 mm | 4.02 m/s, 211° | 177 W/m² | - |
| 1778015234 | 27.22° C | 82% | 1012.1 hPa | 0 mm | 2.68 m/s, 210° | 257 W/m² | - |
| 1778014931 | 27.22° C | 82% | 1011.9 hPa | 0 mm | 1.34 m/s, 220° | 223 W/m² | - |
| 1778014629 | 27.22° C | 82% | 1011.8 hPa | 0 mm | 3.13 m/s, 223° | 155 W/m² | - |
| 1778014327 | 27.22° C | 82% | 1012.3 hPa | 0 mm | 3.13 m/s, 204° | 199 W/m² | - |
| 1778014023 | 27.22° C | 82% | 1012.2 hPa | 0 mm | 3.13 m/s, 195° | 199 W/m² | - |
| 1778013721 | 27.22° C | 82% | 1012.6 hPa | 0 mm | 3.58 m/s, 193° | 259 W/m² | - |
* Rain latest hour (hover to see other rain measurements)
** Current wind speed in m/s (hover to see current wind gust speed)